Tracking 32571 objects as of 17-Dec-2025
HD Live streaming from Space Station
objects crossing your sky now

STARLINK-30885

Track STARLINK-30885 now!
10-day predictions
STARLINK-30885 is classified as:


NORAD ID: 58361
Int'l Code: 2023-177L
Perigee: 565.1 km
Apogee: 567.3 km
Inclination: 43.0 °
Period: 95.8 minutes
Semi major axis: 6937 km
RCS: Unknown
Launch date: November 18, 2023
Source: United States (US)
Launch site: AIR FORCE EASTERN TEST RANGE (AFETR)
Your satellite tracking list
Your tracking list is empty




NASA's NSSDC Master Catalog

Two Line Element Set (TLE):
1 58361U 23177L   25350.59755210  .00001389  00000-0  11792-3 0  9996
2 58361  43.0040  83.3423 0001553 270.2636  89.8028 15.02535760115724
Source of the keplerian elements: AFSPC